TimeCDT,TemperatureF,Dew PointF,Humidity,Sea Level PressureIn,VisibilityMPH,Wind Direction,Wind SpeedMPH,Gust SpeedMPH,PrecipitationIn,Events,Conditions,WindDirDegrees,DateUTC
12:15 AM,71.2,57.4,61,30.05,10.0,SE,13.8,-,N/A,,Clear,140,2013-06-19 05:15:00
12:35 AM,70.9,57.4,62,30.05,10.0,SSE,18.4,-,N/A,,Clear,160,2013-06-19 05:35:00
12:55 AM,70.7,58.1,64,30.03,10.0,South,18.4,21.9,N/A,,Clear,170,2013-06-19 05:55:00
1:15 AM,70.7,58.3,65,30.05,10.0,SSE,16.1,23.0,N/A,,Clear,160,2013-06-19 06:15:00
1:35 AM,70.0,58.6,67,30.05,10.0,South,17.3,23.0,N/A,,Scattered Clouds,170,2013-06-19 06:35:00
1:55 AM,69.4,59.4,70,30.07,10.0,South,15.0,-,N/A,Rain,Light Rain,180,2013-06-19 06:55:00
2:15 AM,66.6,60.8,82,29.92,3.0,South,38.0,47.2,N/A,Rain-Thunderstorm,Thunderstorms and Rain,170,2013-06-19 07:15:00
2:35 AM,67.3,61.0,80,29.96,10.0,SE,25.3,49.5,N/A,Thunderstorm,Thunderstorm,130,2013-06-19 07:35:00
2:55 AM,67.5,61.0,80,29.99,10.0,SSE,11.5,-,N/A,,Clear,150,2013-06-19 07:55:00
3:15 AM,67.1,61.3,82,30.01,10.0,SE,13.8,18.4,N/A,,Clear,130,2013-06-19 08:15:00
3:35 AM,66.6,61.5,84,30.04,10.0,South,13.8,-,N/A,,Clear,170,2013-06-19 08:35:00
3:55 AM,65.7,61.3,86,30.03,10.0,SSE,12.7,-,N/A,,Clear,160,2013-06-19 08:55:00
4:15 AM,65.7,61.2,85,30.02,10.0,SSE,15.0,23.0,N/A,,Clear,150,2013-06-19 09:15:00
4:35 AM,65.7,61.2,85,30.01,10.0,SE,18.4,21.9,N/A,,Clear,140,2013-06-19 09:35:00
4:55 AM,65.7,61.2,85,30.01,10.0,SE,20.7,27.6,N/A,,Clear,140,2013-06-19 09:55:00
5:15 AM,65.3,61.7,88,30.00,10.0,SE,20.7,24.2,N/A,,Scattered Clouds,130,2013-06-19 10:15:00
5:35 AM,65.3,61.9,89,29.98,10.0,ESE,24.2,-,N/A,Thunderstorm,Mostly Cloudy,120,2013-06-19 10:35:00
5:55 AM,65.3,62.4,90,30.09,10.0,North,19.6,25.3,N/A,Thunderstorm,Overcast,10,2013-06-19 10:55:00
6:15 AM,65.3,61.9,89,30.10,1.0,East,17.3,32.2,N/A,Rain-Thunderstorm,Heavy Thunderstorms and Rain,80,2013-06-19 11:15:00
6:35 AM,64.6,62.1,92,30.08,7.0,SSE,11.5,-,N/A,Rain,Rain,150,2013-06-19 11:35:00
6:55 AM,64.6,62.6,93,30.12,5.0,ENE,10.4,-,N/A,Rain,Light Rain,70,2013-06-19 11:55:00
7:15 AM,64.4,62.6,94,30.12,2.5,ESE,9.2,-,N/A,Rain,Light Rain,120,2013-06-19 12:15:00
7:35 AM,64.4,62.6,94,30.10,2.5,East,16.1,-,N/A,Rain,Light Rain,90,2013-06-19 12:35:00
7:55 AM,64.6,62.8,94,30.09,4.0,East,18.4,-,N/A,Rain,Light Rain,100,2013-06-19 12:55:00
8:15 AM,63.7,61.7,93,30.08,7.0,East,21.9,28.8,N/A,Rain,Light Rain,90,2013-06-19 13:15:00
8:35 AM,63.1,61.3,94,30.08,10.0,East,23.0,28.8,N/A,Rain,Light Rain,100,2013-06-19 13:35:00
8:55 AM,63.1,61.2,93,30.07,10.0,SE,18.4,25.3,N/A,Rain,Light Rain,140,2013-06-19 13:55:00
9:15 AM,64.2,61.7,91,30.09,7.0,SE,19.6,23.0,N/A,Rain,Light Rain,140,2013-06-19 14:15:00
9:35 AM,64.4,62.1,92,30.06,5.0,SE,18.4,26.5,N/A,Rain,Light Rain,140,2013-06-19 14:35:00
9:55 AM,64.0,62.1,93,30.04,5.0,SSE,17.3,31.1,N/A,Rain,Light Rain,150,2013-06-19 14:55:00
10:15 AM,64.2,62.2,93,30.03,4.0,South,20.7,31.1,N/A,Rain-Thunderstorm,Light Thunderstorms and Rain,180,2013-06-19 15:15:00
10:35 AM,64.4,61.7,91,30.02,10.0,South,28.8,33.4,N/A,,Scattered Clouds,180,2013-06-19 15:35:00
10:55 AM,64.6,61.3,89,30.02,10.0,South,24.2,27.6,N/A,,Scattered Clouds,180,2013-06-19 15:55:00
11:15 AM,64.9,61.2,88,30.01,10.0,South,21.9,29.9,N/A,,Clear,180,2013-06-19 16:15:00
11:35 AM,65.8,61.0,84,30.02,10.0,South,25.3,31.1,N/A,Thunderstorm,Clear,190,2013-06-19 16:35:00
11:55 AM,66.6,61.2,83,30.01,10.0,South,27.6,32.2,N/A,,Clear,180,2013-06-19 16:55:00
12:15 PM,68.7,62.1,79,30.01,10.0,South,29.9,38.0,N/A,,Clear,190,2013-06-19 17:15:00
12:35 PM,70.2,61.0,73,30.01,10.0,South,29.9,36.8,N/A,,Clear,190,2013-06-19 17:35:00
12:55 PM,72.7,58.5,61,30.00,10.0,South,33.4,40.3,N/A,,Scattered Clouds,180,2013-06-19 17:55:00
1:15 PM,72.3,58.1,61,30.01,10.0,South,31.1,36.8,N/A,,Mostly Cloudy,190,2013-06-19 18:15:00
1:35 PM,74.8,57.7,55,30.01,10.0,South,33.4,39.1,N/A,,Overcast,180,2013-06-19 18:35:00
1:55 PM,75.2,56.7,52,30.01,10.0,South,28.8,38.0,N/A,,Mostly Cloudy,180,2013-06-19 18:55:00
2:15 PM,75.9,57.4,52,30.00,10.0,South,29.9,41.4,N/A,,Scattered Clouds,180,2013-06-19 19:15:00
2:35 PM,77.0,57.2,50,29.99,10.0,South,28.8,39.1,N/A,,Clear,180,2013-06-19 19:35:00
2:55 PM,78.4,57.2,48,29.98,10.0,South,29.9,35.7,N/A,,Scattered Clouds,180,2013-06-19 19:55:00
3:15 PM,78.4,58.8,51,29.98,10.0,South,26.5,33.4,N/A,,Mostly Cloudy,190,2013-06-19 20:15:00
3:35 PM,78.8,59.0,51,29.97,10.0,SSW,26.5,34.5,N/A,,Mostly Cloudy,200,2013-06-19 20:35:00
3:55 PM,79.2,57.7,48,29.97,10.0,South,31.1,38.0,N/A,,Scattered Clouds,190,2013-06-19 20:55:00
4:15 PM,80.4,59.4,49,29.96,10.0,South,29.9,35.7,N/A,,Scattered Clouds,190,2013-06-19 21:15:00
4:35 PM,79.7,58.8,49,29.96,10.0,South,28.8,35.7,N/A,,Clear,190,2013-06-19 21:35:00
4:55 PM,79.9,58.8,48,29.94,10.0,South,27.6,31.1,N/A,,Clear,190,2013-06-19 21:55:00
5:15 PM,80.6,59.9,49,29.93,10.0,South,25.3,32.2,N/A,,Clear,190,2013-06-19 22:15:00
5:35 PM,79.9,61.0,52,29.94,10.0,South,24.2,29.9,N/A,,Clear,190,2013-06-19 22:35:00
5:55 PM,79.0,61.2,54,29.93,10.0,South,24.2,29.9,N/A,,Clear,180,2013-06-19 22:55:00
6:15 PM,77.9,60.4,55,29.92,10.0,South,20.7,29.9,N/A,,Clear,180,2013-06-19 23:15:00
6:35 PM,77.0,60.1,56,29.92,10.0,South,24.2,28.8,N/A,,Clear,180,2013-06-19 23:35:00
6:55 PM,75.7,60.8,60,29.91,10.0,South,18.4,23.0,N/A,,Clear,180,2013-06-19 23:55:00
7:15 PM,75.2,60.8,61,29.92,10.0,South,18.4,-,N/A,,Clear,170,2013-06-20 00:15:00
7:35 PM,74.3,60.3,61,29.92,10.0,South,21.9,26.5,N/A,,Clear,170,2013-06-20 00:35:00
7:55 PM,73.9,59.9,61,29.93,10.0,South,20.7,26.5,N/A,,Clear,170,2013-06-20 00:55:00
8:15 PM,73.6,60.6,64,29.91,10.0,South,21.9,27.6,N/A,,Clear,170,2013-06-20 01:15:00
8:35 PM,73.6,59.5,61,29.91,10.0,SE,18.4,27.6,N/A,,Clear,140,2013-06-20 01:35:00
8:55 PM,73.2,59.2,61,29.89,10.0,SE,18.4,27.6,N/A,,Clear,140,2013-06-20 01:55:00
9:15 PM,72.5,59.0,62,29.89,10.0,SE,18.4,27.6,N/A,,Clear,140,2013-06-20 02:15:00
9:35 PM,71.6,59.2,65,29.92,10.0,SE,16.1,21.9,N/A,,Clear,140,2013-06-20 02:35:00
9:55 PM,71.2,59.0,65,29.92,10.0,SE,19.6,-,N/A,,Clear,130,2013-06-20 02:55:00
10:15 PM,70.3,60.3,70,29.92,10.0,SE,20.7,26.5,N/A,,Clear,140,2013-06-20 03:15:00
10:35 PM,70.0,60.8,73,29.92,10.0,SE,18.4,24.2,N/A,,Clear,140,2013-06-20 03:35:00
10:55 PM,69.4,60.8,74,29.92,10.0,SE,19.6,-,N/A,,Clear,140,2013-06-20 03:55:00
11:15 PM,69.1,61.2,76,29.93,10.0,SE,16.1,-,N/A,,Clear,140,2013-06-20 04:15:00
11:35 PM,67.8,60.8,78,29.93,10.0,SSE,16.1,20.7,N/A,,Clear,150,2013-06-20 04:35:00
11:55 PM,67.5,61.7,82,29.93,10.0,SSE,19.6,25.3,N/A,,Clear,150,2013-06-20 04:55:00